Preview of NWS' New Version of Forecast
This preview is not operational and should not be used for support decisions.

Regional Weather Roundup (RWR)

Issued by National Weather Service (NWS)

                            
000
ASUS43 KBIS 252310
RWRND 

NORTH DAKOTA REGIONAL WEATHER ROUNDUP
NATIONAL WEATHER SERVICE BISMARCK ND
600 PM CDT SUN AUG 25 2019

NOTE: "FAIR" INDICATES FEW OR NO CLOUDS BELOW 12,000 FEET WITH NO
SIGNIFICANT WEATHER AND/OR OBSTRUCTIONS TO VISIBILITY.


NDZ001>003-009>011-017-260000-
NORTHWEST NORTH DAKOTA
  
CITY           SKY/WX    TMP DP  RH WIND       PRES   REMARKS
WILLISTON      MOSUNNY   77  54  44 NW18      29.74R                  
MINOT          LGT RAIN  74  55  51 SW10G17   29.67R                  
MINOT AFB      SUNNY     71  57  62 W8        29.65F                  
$$
 
NDZ018>021-031>035-040>046-260000-
SOUTHWEST NORTH DAKOTA
  
CITY           SKY/WX    TMP DP  RH WIND       PRES   REMARKS
BISMARCK       MOSUNNY   75  69  81 SE10      29.64R                  
DICKINSON      CLOUDY    80  47  31 NW17G25   29.72S                  
GARRISON         N/A     78  59  51 N7        29.64S                  
HETTINGER ARPT CLOUDY    76  55  48 NW10      29.76R                  
$$
 
NDZ004>008-012>016-024-026-027-054-260000-
NORTHEAST NORTH DAKOTA
  
CITY           SKY/WX    TMP DP  RH WIND       PRES   REMARKS
GRAND FORKS    CLOUDY    67  60  78 S18G28    29.74R                  
GRND FRKS AFB  CLOUDY    67  64  89 S17G23    29.74R                  
DEVILS LAKE    CLOUDY    68  66  93 S18       29.69F                  
$$
 
NDZ022-023-025-028>030-036>039-047>053-260000-
SOUTHEAST NORTH DAKOTA
  
CITY           SKY/WX    TMP DP  RH WIND       PRES   REMARKS
FARGO          CLOUDY    67  61  81 SE15G26   29.77F                  
JAMESTOWN      CLOUDY    70  67  90 S10       29.71R                  
$$